Lid_Strength_Index
2 2 2 2 2 2 2 2 2 2 3 3 3 4 4 4 3 3 3 2 4 7 6 5 4 6 6 6 8 6 7 7 7 9 9 9 10 9 10 9 11 11 13 13 13 15 15 7 8 11 8 6 6 6
2 2 2 2 2 1 1 2 2 2 2 2 2 2 3 3 3 3 4 1 2 6 6 4 4 3 3 4 5 5 6 7 6 8 8 8 10 9 11 13 9 13 10 10 11 10 7 6 6 5 5 6 6 5
1 1 1 1 1 1 1 1 1 1 1 1 1 2 2 2 2 2 3 2 2 5 6 5 6 2 2 3 2 6 5 4 5 4 6 7 10 8 12 11 10 9 7 10 9 7 7 5 4 4 4 5 4 4
1 1 1 1 1 1 1 0 1 1 1 1 1 2 1 2 2 2 3 1 2 4 8 6 2 3 1 2 2 3 3 4 4 4 6 7 9 6 8 8 9 7 8 9 9 7 5 5 5 4 4 4 4 4
1 1 1 1 0 1 0 0 0 1 1 1 1 1 1 2 2 1 1 1 0 4 8 7 3 3 2 2 2 2 3 4 5 6 7 8 6 7 6 7 8 6 7 9 9 5 6 6 4 3 4 4 4 4
1 1 1 0 0 1 1 0 0 1 1 1 1 1 1 2 1 2 4 0 -0 0 5 9 3 3 2 2 3 3 3 4 4 6 6 5 5 6 9 10 6 5 4 4 6 4 4 4 3 3 4 4 4 4
1 1 1 1 1 1 1 1 1 1 1 1 1 1 1 2 1 5 4 1 0 -0 6 8 8 4 3 3 3 4 3 4 5 5 6 6 6 6 7 10 6 5 4 4 3 4 5 4 4 4 4 3 3 3
1 1 1 1 1 1 0 1 0 1 0 0 0 1 1 1 1 3 1 0 0 3 4 9 9 7 3 5 6 3 5 5 6 6 5 6 6 6 9 6 5 4 4 4 5 4 4 3 3 4 3 3 4 4
2 1 1 0 0 0 -0 0 0 0 0 1 1 1 1 2 3 2 0 -1 0 3 8 8 10 11 4 5 4 6 5 8 6 7 7 6 8 10 7 6 6 5 6 6 5 4 4 5 5 4 4 4 4 4
1 1 0 0 0 -0 -0 0 0 1 1 1 1 4 6 2 -0 -1 2 5 5 5 5 9 5 9 6 6 7 7 6 8 10 7 6 8 8 5 5 4 5 5 5 4 6 6 6 5 5 5 5 4 4 4
1 1 1 0 0 0 0 1 1 1 1 2 4 5 1 -0 2 4 7 8 8 9 7 6 6 8 4 8 8 6 8 7 10 9 9 9 9 7 5 5 4 4 4 4 4 4 4 4 5 4 4 4 3 3
1 1 1 0 0 0 0 1 1 1 1 2 3 1 1 4 6 8 9 8 9 10 7 7 7 6 5 4 8 7 9 9 12 7 10 12 8 6 6 5 4 4 4 4 4 4 3 4 4 4 4 3 3 3
1 1 1 0 0 0 0 0 0 1 1 2 3 6 6 6 11 11 12 11 11 7 6 7 7 6 5 5 8 9 11 11 7 11 11 9 7 6 5 5 4 4 4 4 4 3 3 3 3 3 3 3 3 3
1 1 1 1 0 0 1 1 1 1 3 6 8 11 10 11 10 9 8 8 6 6 7 7 6 7 6 8 8 11 8 9 12 13 12 9 6 6 5 5 5 5 4 4 4 4 4 4 3 3 3 2 3 3
1 1 1 1 1 1 1 1 1 1 4 7 9 11 9 7 6 6 5 6 5 5 6 7 6 6 8 9 8 9 11 12 11 11 9 7 6 5 5 5 5 5 4 4 4 4 4 4 3 3 3 3 2 3
1 1 2 1 1 1 1 1 1 2 4 6 7 9 7 8 8 7 7 7 5 5 5 6 8 9 10 9 10 11 11 12 11 8 7 6 5 5 5 5 4 4 4 4 3 3 3 4 4 3 2 3 3 3
2 3 1 1 1 1 2 2 3 5 6 7 8 6 7 7 8 7 6 6 4 6 9 8 10 11 8 10 11 9 11 9 7 7 5 5 5 5 4 4 4 3 3 3 3 3 3 3 2 3 4 3 3 3
3 1 1 1 1 2 2 3 5 5 8 6 8 7 6 5 7 6 5 5 6 7 7 9 7 10 11 12 11 8 7 6 5 5 5 4 4 4 4 4 3 3 3 3 3 3 3 3 4 4 3 2 2 2
1 1 1 1 1 3 5 5 4 8 7 6 6 6 5 6 4 4 4 4 4 4 6 7 9 10 10 8 8 7 6 6 6 5 4 4 3 4 4 3 3 3 3 3 3 3 3 3 3 3 3 3 3 3
1 1 1 1 1 4 6 6 4 7 8 6 5 6 6 6 5 5 5 5 5 6 8 9 9 8 7 6 5 5 5 4 5 6 5 4 3 3 3 4 4 3 3 2 3 5 2 3 2 2 2 3 3 3
2 2 2 2 3 4 5 5 6 5 6 7 6 6 7 5 6 6 6 4 6 7 8 7 7 5 4 4 3 3 4 3 4 5 5 5 4 3 3 3 2 3 3 3 3 3 4 3 2 2 2 2 3 4
3 2 3 3 5 5 5 4 5 5 6 6 7 6 8 8 8 7 5 7 8 7 6 6 5 4 4 4 4 3 3 3 3 3 5 4 4 4 5 4 3 4 4 4 3 3 3 2 2 2 3 4 4 5
2 3 4 4 6 8 9 4 7 7 9 8 7 9 9 8 7 5 8 7 6 4 4 4 3 3 4 3 3 3 2 3 4 3 3 3 4 4 5 5 4 4 4 4 3 3 2 5 2 2 4 4 5 6
3 6 7 7 8 10 7 8 7 7 7 8 9 10 9 8 6 7 9 8 6 4 4 4 3 4 4 3 4 4 3 3 3 3 2 3 4 5 4 4 4 4 4 3 3 2 2 2 4 3 4 5 6 6
9 9 8 10 7 8 9 9 8 8 9 8 9 9 8 6 9 9 10 8 6 5 4 4 4 4 5 5 4 3 2 2 3 3 3 3 4 4 4 4 4 3 3 3 4 3 4 4 4 5 6 6 7 7
12 8 9 8 8 8 8 10 9 9 9 9 9 7 7 8 10 11 9 7 6 5 4 4 4 5 4 4 4 3 3 1 2 3 2 2 3 3 4 4 4 4 3 3 3 4 5 5 5 6 7 8 10 8
10 8 6 4 5 6 7 7 6 8 9 10 8 8 8 11 11 9 5 4 5 3 3 2 3 3 4 4 3 3 2 2 2 3 3 3 3 3 3 4 4 4 3 3 3 3 4 5 5 6 6 6 7 7
7 6 9 7 7 6 8 8 9 9 8 7 7 10 10 10 10 6 4 2 2 2 4 4 5 5 6 6 5 3 4 3 3 3 3 4 4 4 4 4 4 9 3 2 3 4 4 5 5 6 6 6 6 6
7 6 6 8 7 8 8 9 9 7 5 6 9 9 8 6 4 4 3 2 1 2 5 6 6 5 4 4 4 4 4 4 4 5 6 5 5 5 5 4 3 3 3 5 10 7 6 6 6 6 6 5 6 6
7 6 7 8 9 9 7 6 6 5 4 4 4 4 4 4 4 3 2 2 3 3 4 4 4 4 4 4 5 6 5 5 5 5 6 6 6 5 4 4 3 4 4 5 6 6 9 6 7 5 6 6 6 6
6 5 7 7 8 6 5 4 3 3 3 4 4 5 6 5 3 3 3 2 2 3 3 4 4 4 4 5 5 6 7 6 5 5 5 5 5 5 5 5 5 4 4 5 5 5 5 6 6 7 7 7 6 7
5 7 7 8 7 5 4 5 5 6 5 5 5 4 4 4 5 3 3 2 2 2 5 3 3 4 4 5 5 5 8 5 5 4 4 4 4 5 5 5 5 5 5 5 5 5 6 6 6 6 6 6 6 6
6 5 6 6 7 7 5 6 6 6 6 6 6 5 4 5 6 3 2 2 2 3 3 3 3 4 4 4 4 5 7 4 6 10 9 10 11 9 5 4 5 5 5 5 5 5 6 6 6 6 6 6 6 5